Regional Weather Roundup
Issued by NWS

Home | Current Version | Previous Version | Graphics & Text | Print | Product List | Glossary Off
Versions: 1 2 3 4 5 6 7 8 9 10 11 12 13 14 15 16 17 18 19 20 21 22 23 24 25 26 27 28 29 30 31 32 33 34 35 36 37 38 39 40 41 42 43 44 45 46 47 48 49 50

000
ASUS43 KTOP 052108
RWRKS

WEATHER ROUNDUP FOR KANSAS
NATIONAL WEATHER SERVICE GOODLAND KS
300 PM CST THU MAR 05 2015

NOTE:  "FAIR" INDICATES FEW OR NO CLOUDS BELOW 12,000 FEET WITH NO
SIGNIFICANT WEATHER AND/OR OBSTRUCTIONS TO VISIBILITY.

KSZ001>006-013>018-027>032-041>047-052200-
NORTHWEST KANSAS

CITY           SKY/WX    TMP DP  RH WIND       PRES   REMARKS
GOODLAND       SUNNY     45  11  25 SW14      30.24F
HAYS           SUNNY     45   5  19 SW5       30.33F
HILL CITY      SUNNY     47   0  14 MISG      30.29F
RUSSELL        SUNNY     44   2  17 W9G16     30.33F
$$

KSZ061>065-074>080-084>089-052200-
SOUTHWEST KANSAS

CITY           SKY/WX    TMP DP  RH WIND       PRES   REMARKS
DODGE CITY     SUNNY     45   9  23 SW12G20   30.33F
ELKHART          N/A     46  11  24 S5          N/A
GARDEN CITY    SUNNY     44   7  21 VRB7      30.30F
GREAT BEND     SUNNY     45   7  21 W10G17    30.35F
LIBERAL        SUNNY     43  27  52 S12       30.35F
PRATT          SUNNY     41  21  45 SW13      30.39F
$$

KSZ066>073-081>083-090>101-052200-
SOUTHEAST KANSAS

CITY           SKY/WX    TMP DP  RH WIND       PRES   REMARKS
CHANUTE        SUNNY     38  13  35 W6        30.49F
COFFEYVILLE    SUNNY     39  16  39 VRB3      30.51F
HUTCHINSON     SUNNY     44  17  33 S9        30.39F
MEDICINE LODGE   N/A     45  13  27 W8        30.40F
NEWTON         SUNNY     39  19  45 SW7       30.42F
PARSONS        SUNNY     39  14  36 SW7       30.50F
WICHITA INTL   MOSUNNY   44  15  31 W12       30.42F
WICHITA JABRA  SUNNY     43  15  32 W10       30.42F
WICHITA MCCONL SUNNY     43  14  31 W10       30.42F
WINFIELD       SUNNY     44  16  32 SW9G18    30.46F
$$

KSZ007>012-019>026-033>040-048>060-102>105-052200-
NORTHEAST KANSAS

CITY           SKY/WX    TMP DP  RH WIND       PRES   REMARKS
CONCORDIA      SUNNY     38   7  27 SW9       30.38F
EMPORIA        SUNNY     36  14  40 SW7       30.44F
LAWRENCE       SUNNY     31   4  31 VRB3      30.50F
MANHATTAN      SUNNY     39   9  29 VRB6      30.43F
MARYSVILLE     SUNNY     34   7  32 SW10      30.43F WCI  26
OLATHE IND     SUNNY     29   6  38 NW5       30.50F
OLATHE EXE     SUNNY     31   3  30 NW5       30.48F
SALINA         SUNNY     44   6  21 W8        30.39F
TOPEKA BILLARD SUNNY     33   5  30 MISG      30.48F
TOPEKA FORBES  SUNNY     34   6  31 VRB5      30.46F
$$



USA.gov is the U.S. government's official web portal to all federal, state and local government web resources and services.